www.pogodaiklimat.ru

Погода и климат >> Архив погоды >> Австралия >> Rowley Shoals


ПОГОДА в Rowley Shoals

  • Прогноз погоды в Rowley Shoals
  • Монитор погоды в Rowley Shoals
  • Климат города

АРХИВ ПОГОДЫ в Rowley Shoals

Время (UTC), дата Ветер
(напр.,м/с)
 
Видим.   Явления Облачность Т
(С)
Тd
(С)
f
(%)
Тe
(С)
Тes
(С)
Комфортность P
(гПа)
Po
(гПа)
Тmin
(С)
Tmax
(С)
R
(мм)
R24
(мм)
S
(см)
22 17.05 ЮВ 5 н/о н/о +26.9 +22 +22 комфорт 1013.6 1012.7
23 17.05 ЮВ 6 н/о н/о +27.2 +22 +22 комфорт 1014.0 1013.1
00 18.05 В 10 н/о н/о +27.3 +23 +23 комфорт 1014.4 1013.5
01 18.05 В 9 н/о н/о +27.3 +23 +23 комфорт 1014.9 1014.0
02 18.05 В 9 н/о н/о +27.3 +23 +23 комфорт 1014.9 1014.0
03 18.05 В 9 н/о н/о +27.0 +22 +22 комфорт 1014.5 1013.6
04 18.05 В 9 н/о н/о +26.9 +22 +22 комфорт 1014.0 1013.1
05 18.05 ЮВ 9 н/о н/о +26.9 +22 +22 комфорт 1013.4 1012.5
06 18.05 ЮВ 9 н/о н/о +26.7 +22 +22 комфорт 1013.0 1012.1
07 18.05 В 8 н/о н/о +26.7 +22 +22 комфорт 1012.9 1012.0
08 18.05 ЮВ 9 н/о н/о +26.5 +22 +22 комфорт 1012.9 1012.0
09 18.05 ЮВ 8 н/о н/о +26.5 +22 +22 комфорт 1013.3 1012.4
10 18.05 ЮВ 8 н/о н/о +26.7 +22 +22 комфорт 1014.0 1013.1
11 18.05 ЮВ 8 н/о н/о +26.5 +22 +22 комфорт 1014.4 1013.5
12 18.05 ЮВ 9 н/о н/о +26.5 +22 +22 комфорт 1014.8 1013.9
13 18.05 ЮВ 8 н/о н/о +26.5 +22 +22 комфорт 1014.7 1013.8
14 18.05 ЮВ 8 н/о н/о +26.5 +22 +22 комфорт 1014.6 1013.7
15 18.05 ЮВ 8 н/о н/о +26.9 +22 +22 комфорт 1014.2 1013.3
16 18.05 ЮВ 8 н/о н/о +27.3 +23 +23 комфорт 1014.0 1013.1
17 18.05 ЮВ 8 н/о н/о +27.2 +22 +22 комфорт 1013.6 1012.7
18 18.05 ЮВ 8 н/о н/о +27.1 +22 +22 комфорт 1013.2 1012.3
19 18.05 ЮВ 8 н/о н/о +27.1 +22 +22 комфорт 1013.0 1012.1
20 18.05 ЮВ 7 н/о н/о +27.0 +22 +22 комфорт 1013.1 1012.2
21 18.05 ЮВ 7 н/о н/о +27.0 +22 +22 комфорт 1013.6 1012.7
22 18.05 ЮВ 8 н/о н/о +26.8 +22 +22 комфорт 1013.9 1013.0
23 18.05 В 8 н/о н/о +26.6 +22 +22 комфорт 1014.4 1013.5
00 19.05 ЮВ 8 н/о н/о +26.5 +22 +22 комфорт 1014.8 1013.9
01 19.05 В 8 н/о н/о +26.4 +22 +22 комфорт 1015.1 1014.2
02 19.05 В 8 н/о н/о +26.4 +22 +22 комфорт 1014.7 1013.8
03 19.05 В 8 н/о н/о +26.3 +22 +22 комфорт 1013.8 1012.9
04 19.05 ЮВ 7 н/о н/о +26.3 +22 +22 комфорт 1012.8 1011.9
05 19.05 В 7 н/о н/о +26.1 +22 +22 комфорт 1011.8 1010.9
06 19.05 В 6 н/о н/о +26.1 +22 +22 комфорт 1011.2 1010.3
07 19.05 ЮВ 5 н/о н/о +26.0 +22 +22 комфорт 1011.0 1010.1
08 19.05 ЮВ 4 н/о н/о +26.0 +22 +22 комфорт 1011.2 1010.3
09 19.05 ЮВ 5 н/о н/о +25.7 +21 +21 комфорт 1011.4 1010.5
10 19.05 ЮВ 4 н/о н/о +25.6 +21 +21 комфорт 1011.8 1010.9
11 19.05 Ю 5 н/о н/о +25.5 +21 +21 комфорт 1012.5 1011.6
12 19.05 Ю 4 н/о н/о +25.3 +21 +21 комфорт 1013.1 1012.2
13 19.05 ЮВ 6 н/о н/о +25.2 +21 +21 комфорт 1013.2 1012.3
14 19.05 Ю 5 н/о н/о +25.1 +21 +21 комфорт 1013.0 1012.1
15 19.05 Ю 4 н/о н/о +24.9 +21 +21 комфорт 1012.8 1011.9
16 19.05 ЮВ 4 н/о н/о +25.0 +21 +21 комфорт 1012.3 1011.4
17 19.05 ЮВ 5 н/о н/о +25.5 +21 +21 комфорт 1011.7 1010.8
18 19.05 ЮВ 5 н/о н/о +25.9 +22 +22 комфорт 1011.6 1010.7
19 19.05 ЮВ 6 н/о н/о +26.2 +22 +22 комфорт 1011.3 1010.4
20 19.05 ЮВ 7 н/о н/о +26.5 +22 +22 комфорт 1011.5 1010.6
21 19.05 Ю 6 н/о н/о +26.6 +22 +22 комфорт 1011.4 1010.5
22 19.05 ЮВ 6 н/о н/о +26.5 +22 +22 комфорт 1011.8 1010.9
23 19.05 ЮВ 6 н/о н/о +26.5 +22 +22 комфорт 1012.3 1011.4
00 20.05 ЮВ 6 н/о н/о +26.8 +22 +22 комфорт 1012.7 1011.8
01 20.05 ЮВ 5 н/о н/о +27.2 +22 +22 комфорт 1012.9 1012.0
02 20.05 ЮВ 5 н/о н/о +27.3 +23 +23 комфорт 1012.8 1011.9
03 20.05 ЮВ 5 н/о н/о +27.4 +23 +23 комфорт 1012.0 1011.1
04 20.05 ЮВ 5 н/о н/о +27.2 +22 +22 комфорт 1011.3 1010.4
05 20.05 ЮВ 4 н/о н/о +27.1 +22 +22 комфорт 1010.4 1009.5
06 20.05 ЮВ 4 н/о н/о +26.9 +22 +22 комфорт 1010.1 1009.2
07 20.05 ЮВ 4 н/о н/о +26.8 +22 +22 комфорт 1009.9 1009.0
08 20.05 ЮВ 4 н/о н/о +26.9 +22 +22 комфорт 1009.7 1008.8
09 20.05 ЮВ 4 н/о н/о +26.6 +22 +22 комфорт 1009.9 1009.0
10 20.05 ЮВ 3 н/о н/о +26.4 +22 +22 комфорт 1010.1 1009.2
11 20.05 ЮВ 4 н/о н/о +26.3 +22 +22 комфорт 1010.5 1009.6
12 20.05 ЮВ 3 н/о н/о +26.2 +22 +22 комфорт 1011.0 1010.1
13 20.05 ЮВ 4 н/о н/о +26.1 +22 +22 комфорт 1010.9 1010.0
14 20.05 ЮВ 4 н/о н/о +25.9 +22 +22 комфорт 1010.6 1009.7
15 20.05 Ю 3 н/о н/о +25.8 +21 +21 комфорт 1010.3 1009.4
16 20.05 Ю 4 н/о н/о +25.6 +21 +21 комфорт 1010.1 1009.2
17 20.05 Ю 3 н/о н/о +25.5 +21 +21 комфорт 1010.0 1009.1
18 20.05 Ю 2 н/о н/о +25.3 +21 +21 комфорт 1009.6 1008.7
19 20.05 Ю 3 н/о н/о +25.2 +21 +21 комфорт 1009.5 1008.6
20 20.05 Ю 3 н/о н/о +25.1 +21 +21 комфорт 1009.4 1008.5
21 20.05 Ю 2 н/о н/о +25.1 +21 +21 комфорт 1009.9 1009.0
22 20.05 Ю 2 н/о н/о +25.0 +21 +21 комфорт 1010.4 1009.5
23 20.05 Ю 2 н/о н/о +25.2 +21 +21 комфорт 1011.0 1010.1
00 21.05 Ю 1 н/о н/о +25.8 +21 +21 комфорт 1011.7 1010.8
01 21.05 Ю 2 н/о н/о +26.0 +22 +22 комфорт 1012.0 1011.1
02 21.05 Ю 2 н/о н/о +25.9 +22 +22 комфорт 1011.9 1011.0
03 21.05 Ю 1 н/о н/о +26.4 +22 +22 комфорт 1011.5 1010.6
04 21.05 ЮЗ 1 н/о н/о +26.4 +22 +22 комфорт 1011.2 1010.3
05 21.05 Ю 1 н/о н/о +26.9 +22 +22 комфорт 1010.5 1009.6
06 21.05 З 2 н/о н/о +26.5 +22 +22 комфорт 1010.1 1009.2
07 21.05 З 2 н/о н/о +26.5 +22 +22 комфорт 1010.0 1009.1
08 21.05 З 3 н/о н/о +26.2 +22 +22 комфорт 1010.3 1009.4
09 21.05 З 3 н/о н/о +26.0 +22 +22 комфорт 1010.6 1009.7
10 21.05 З 4 н/о н/о +26.0 +22 +22 комфорт 1011.1 1010.2
11 21.05 З 4 н/о н/о +26.1 +22 +22 комфорт 1011.8 1010.9
12 21.05 Ю 4 н/о н/о +26.1 +22 +22 комфорт 1012.4 1011.5
13 21.05 Ю 3 н/о н/о +26.0 +22 +22 комфорт 1012.5 1011.6
14 21.05 Ю 3 н/о н/о +26.1 +22 +22 комфорт 1012.6 1011.7
15 21.05 Ю 3 н/о н/о +25.9 +22 +22 комфорт 1012.4 1011.5
16 21.05 Ю 2 н/о н/о +25.8 +21 +21 комфорт 1012.1 1011.2
17 21.05 Ю 3 н/о н/о +25.7 +21 +21 комфорт 1011.9 1011.0
18 21.05 Ю 2 н/о н/о +25.6 +21 +21 комфорт 1011.9 1011.0
19 21.05 Ю 2 н/о н/о +25.6 +21 +21 комфорт 1012.0 1011.1
20 21.05 Ю 2 н/о н/о +25.6 +21 +21 комфорт 1012.1 1011.2
21 21.05 Ю 2 н/о н/о +25.7 +21 +21 комфорт 1012.4 1011.5
22 21.05 Ю 2 н/о н/о +25.7 +21 +21 комфорт 1013.1 1012.2
23 21.05 Ю 3 н/о н/о +26.0 +22 +22 комфорт 1013.8 1012.9
00 22.05 Ю 4 н/о н/о +26.3 +22 +22 комфорт 1014.5 1013.6
01 22.05 Ю 3 н/о н/о +26.6 +22 +22 комфорт 1015.1 1014.2
02 22.05 Ю 3 н/о н/о +26.6 +22 +22 комфорт 1015.0 1014.1
03 22.05 Ю 3 н/о н/о +27.0 +22 +22 комфорт 1014.5 1013.6
04 22.05 Ю 2 н/о н/о +26.9 +22 +22 комфорт 1013.9 1013.0
05 22.05 Ю 2 н/о н/о +27.4 +23 +23 комфорт 1013.3 1012.4
06 22.05 В 3 н/о н/о +26.9 +22 +22 комфорт 1012.6 1011.7
07 22.05 ЮВ 3 н/о н/о +26.7 +22 +22 комфорт 1012.4 1011.5
08 22.05 В 3 н/о н/о +26.5 +22 +22 комфорт 1012.4 1011.5
09 22.05 ЮВ 4 н/о н/о +26.4 +22 +22 комфорт 1012.6 1011.7
10 22.05 В 4 н/о н/о +26.3 +22 +22 комфорт 1012.9 1012.0
11 22.05 ЮВ 4 н/о н/о +26.3 +22 +22 комфорт 1013.4 1012.5
12 22.05 ЮВ 4 н/о н/о +26.3 +22 +22 комфорт 1013.8 1012.9
13 22.05 ЮВ 4 н/о н/о +26.3 +22 +22 комфорт 1014.1 1013.2
14 22.05 ЮВ 4 н/о н/о +26.2 +22 +22 комфорт 1014.4 1013.5
15 22.05 В 4 н/о н/о +26.2 +22 +22 комфорт 1014.4 1013.5
16 22.05 В 3 н/о н/о +26.1 +22 +22 комфорт 1014.3 1013.4
17 22.05 В 3 н/о н/о +26.0 +22 +22 комфорт 1013.9 1013.0
18 22.05 В 2 н/о н/о +26.0 +22 +22 комфорт 1013.7 1012.8
19 22.05 ЮВ 2 н/о н/о +25.9 +22 +22 комфорт 1013.5 1012.6
20 22.05 Ю 2 н/о н/о +25.8 +21 +21 комфорт 1013.7 1012.8
21 22.05 Ю 3 н/о н/о +25.8 +21 +21 комфорт 1013.8 1012.9
22 22.05 Ю 3 н/о н/о +25.8 +21 +21 комфорт 1014.2 1013.3
23 22.05 Ю 3 н/о н/о +26.0 +22 +22 комфорт 1014.6 1013.7
00 23.05 Ю 3 н/о н/о +26.4 +22 +22 комфорт 1015.2 1014.3
01 23.05 ЮВ 4 н/о н/о +26.3 +22 +22 комфорт 1015.5 1014.6
02 23.05 ЮВ 5 н/о н/о +26.5 +22 +22 комфорт 1015.4 1014.5
03 23.05 ЮВ 4 н/о н/о +26.6 +22 +22 комфорт 1014.8 1013.9
04 23.05 ЮВ 4 н/о н/о +26.9 +22 +22 комфорт 1014.3 1013.4
05 23.05 ЮВ 4 н/о н/о +27.1 +22 +22 комфорт 1013.3 1012.4
06 23.05 ЮВ 4 н/о н/о +27.1 +22 +22 комфорт 1012.6 1011.7
07 23.05 ЮВ 4 н/о н/о +27.3 +23 +23 комфорт 1012.2 1011.3
08 23.05 ЮВ 4 н/о н/о +27.2 +22 +22 комфорт 1012.1 1011.2
09 23.05 ЮВ 5 н/о н/о +26.8 +22 +22 комфорт 1012.4 1011.5
10 23.05 ЮВ 6 н/о н/о +26.8 +22 +22 комфорт 1012.9 1012.0
11 23.05 ЮВ 6 н/о н/о +27.5 +23 +23 комфорт 1013.5 1012.6
12 23.05 ЮВ 6 н/о н/о +27.5 +23 +23 комфорт 1014.2 1013.3
13 23.05 ЮВ 5 н/о н/о +27.6 +23 +23 комфорт 1014.6 1013.7
14 23.05 ЮВ 5 н/о н/о +27.7 +23 +23 комфорт 1014.4 1013.5
15 23.05 Ю 5 н/о н/о +28.0 +23 +23 комфорт 1014.2 1013.3
16 23.05 Ю 5 н/о н/о +28.0 +23 +23 комфорт 1013.9 1013.0
17 23.05 Ю 4 н/о н/о +27.9 +23 +23 комфорт 1013.4 1012.5
18 23.05 Ю 4 н/о н/о +27.9 +23 +23 комфорт 1013.0 1012.1
19 23.05 Ю 4 н/о н/о +27.8 +23 +23 комфорт 1012.6 1011.7
20 23.05 Ю 6 н/о н/о +27.9 +23 +23 комфорт 1012.6 1011.7
21 23.05 ЮВ 7 н/о н/о +27.7 +23 +23 комфорт 1012.8 1011.9
22 23.05 ЮВ 6 н/о н/о +27.9 +23 +23 комфорт 1013.3 1012.4
23 23.05 ЮВ 7 н/о н/о +28.2 +23 +23 комфорт 1013.7 1012.8
00 24.05 ЮВ 7 н/о н/о +28.4 +23 +23 комфорт 1014.0 1013.1
01 24.05 ЮВ 7 н/о н/о +28.3 +23 +23 комфорт 1014.1 1013.2
02 24.05 ЮВ 7 н/о н/о +28.5 +24 +24 комфорт 1014.0 1013.1
03 24.05 В 6 н/о н/о +28.6 +24 +24 комфорт 1013.6 1012.7
04 24.05 В 6 н/о н/о +28.5 +24 +24 комфорт 1012.9 1012.0
05 24.05 В 6 н/о н/о +28.6 +24 +24 комфорт 1012.1 1011.2
06 24.05 В 6 н/о н/о +28.3 +23 +23 комфорт 1011.4 1010.5
07 24.05 В 5 н/о н/о +28.3 +23 +23 комфорт 1011.3 1010.4
08 24.05 В 5 н/о н/о +28.1 +23 +23 комфорт 1011.4 1010.5
09 24.05 ЮВ 5 н/о н/о +28.0 +23 +23 комфорт 1011.8 1010.9
10 24.05 ЮВ 5 н/о н/о +27.6 +23 +23 комфорт 1012.5 1011.6
11 24.05 ЮВ 5 н/о н/о +27.7 +23 +23 комфорт 1013.1 1012.2
12 24.05 ЮВ 5 н/о н/о +27.8 +23 +23 комфорт 1013.7 1012.8
13 24.05 ЮВ 4 н/о н/о +27.8 +23 +23 комфорт 1013.9 1013.0
14 24.05 ЮВ 4 н/о н/о +28.0 +23 +23 комфорт 1013.9 1013.0
15 24.05 ЮВ 4 н/о н/о +27.8 +23 +23 комфорт 1013.8 1012.9
16 24.05 ЮВ 3 н/о н/о +28.0 +23 +23 комфорт 1013.4 1012.5
17 24.05 ЮВ 3 н/о н/о +28.2 +23 +23 комфорт 1013.1 1012.2
18 24.05 ЮВ 3 н/о н/о +28.1 +23 +23 комфорт 1012.7 1011.8
19 24.05 Ю 2 н/о н/о +28.0 +23 +23 комфорт 1012.4 1011.5
20 24.05 Ю 3 н/о н/о +28.2 +23 +23 комфорт 1012.2 1011.3

 

Местоположение метеостанции Rowley Shoals (Западная Австралия, Австралия): широта -17.53 долгота 118.95 высота над уровнем моря 8 м.

В архиве по умолчанию представлена погода в Rowley Shoals за последнюю неделю. Архивные данные за месяц целиком и за предыдущие месяцы, начиная с января 2011 года, Вы можете получить, выбрав интересующий диапазон дат из раскрывающегося списка и нажав кнопку "Ввод!".

Внимание! Время в таблицах - всемирное. Для получения местного времени необходимо прибавить поправку, которая в Rowley Shoals равна 8 ч.

Смотрите также архив погоды в соседних городах и на ближайших метеорологических станциях:

Погода в Mandora (Западная Австралия, Австралия) (316 км)
Погода в Port Hedland Apardoo (Западная Австралия, Австралия) (317 км)
Погода в Broome Airport (Западная Австралия, Австралия) (351 км)
Погода в West Roebuck (Западная Австралия, Австралия) (359 км)
Погода в Roebourne Aero (Западная Австралия, Австралия) (405 км)
Погода в Marble Bar (Западная Австралия, Австралия) (415 км)
Погода в Karratha Aero (Западная Австралия, Австралия) (422 км)
Погода в Varanus Island (Западная Австралия, Австралия) (497 км)
Погода в Derby Aero (Северная территория, Австралия) (500 км)
Погода в Adele Island (Западная Австралия, Австралия) (501 км)

Пояснения к столбцам:

Ветер - указаны скорость ветра в м/с - средняя за 10 мин, порывы в срок и между сроками (в фигурных скобках) и направление, откуда дует ветер: С - северный, СВ - северо-восточный, В - восточный, ЮВ - юго-восточный, Ю - южный, ЮЗ - юго-западный, З - западный, СЗ - северо-западный.
Видимость - горизонтальная дальность видимости в метрах или километрах. При видимости от 1 до 10 км при отсутствии осадков обычно наблюдается дымка, при ухудшении видимости до 1 км и менее - туман. В сухую погоду видимость может ухудшаться дымом, пылью или мглою.
Явления - указаны атмосферные явления, наблюдавшиеся в срок или в последний час перед сроком; фигурными скобками обозначены явления, наблюдавшиеся между сроками (за 1-3 часа до срока); квадратными скобками обозначены град или гололедные отложения с указанием их диаметра в мм.
Облачность - указаны через наклонную черту общая и нижняя облачность в баллах и высота нижней границы облаков в метрах; квадратными скобками обозначены формы облаков: Ci - перистые, Cs - перисто-слоистые, Cc - перисто-кучевые, Ac - высококучевые, As - высокослоистые, Sc - слоисто-кучевые, Ns - слоисто-дождевые, Cu - кучевые, Cb - кучево-дождевые. Подробнее классификацию облаков см. в Атласе облаков (PDF).
T - Температура воздуха - температура, измеренная на высоте 2 м над землей.
Td - Температура точки росы - температура, при понижении до которой содержащийся в воздухе водяной пар достигнет насыщения.
f - Относительная влажность воздуха - влажноcть воздуха, измеренная на высоте 2 м над землей.
Te - Эффективная температура - температура, которую ощущает одетый по сезону человек в тени. Характеристика душности погоды. При расчете учитывается влияние влажности воздуха и скорости ветра на теплоощущения человека.
Tes - Эффективная температура на солнце - температура, которую ощущает человек, с поправкой на солнечный нагрев. Характеристика знойности погоды. Зависит от высоты солнца над горизонтом, облачности и скорости ветра. Ночью, в пасмурную погоду, а также при ветре 12 м/с и более поправка равна нулю.
P - Атмосферное давление - приведенное к уровню моря атмосферное давление.
Po - Атмосферное давление - измеренное на уровне метеостанции атмосферное давление.
Tmin - Минимальная температура - минимум температуры воздуха на высоте 2 м над землей.
Tmax - Максимальная температура - максимум температуры воздуха на высоте 2 м над землей.
R - Количество осадков - Количество выпавших осадков за период времени, мм. При наведении курсора мыши на число - период времени, за который выпало указанное количество осадков.
R24 - Количество осадков - Количество выпавших осадков за 24 часа, мм.
S - Снежный покров - Высота снежного покрова, см. При наведении курсора мыши на число - состояние снежного покрова и степень покрытия местности в баллах.